Location: Caltech
(34.1382°N, 118.1253°W)
Time: 15:09:06
(UTC-07:00)

Tiros 1 despin weight - All Passes

Search period start: 23 April 2014 00:00
Search period end: 03 May 2014 00:00
Orbit: 602 x 653 km, 48.2° (Epoch: 23 April)

Date Brightness Start Highest point End Pass type
(mag) Time Alt. Az. Time Alt. Az. Time Alt. Az.
23 Apr - 05:36:18 10° S 05:39:46 22° SE 05:43:13 10° E visible
23 Apr - 07:16:51 10° WSW 07:21:15 55° NW 07:25:38 10° NE daylight
23 Apr - 09:00:47 10° WNW 09:03:45 17° NNW 09:06:43 10° NNE daylight
23 Apr - 10:44:43 10° NNW 10:46:57 13° N 10:49:11 10° NE daylight
23 Apr - 12:26:02 10° NW 12:29:53 28° NNE 12:33:46 10° E daylight
23 Apr - 14:07:28 10° WNW 14:11:53 59° SW 14:16:20 10° SE daylight
24 Apr - 05:54:58 10° SSW 05:59:18 50° SE 06:03:38 10° ENE daylight
24 Apr - 07:37:15 10° W 07:41:12 30° NNW 07:45:09 10° NE daylight
24 Apr - 09:21:47 10° NW 09:24:05 14° N 09:26:24 10° NNE daylight
24 Apr - 11:04:28 10° NNW 11:07:18 16° NNE 11:10:09 10° NE daylight
24 Apr - 12:45:33 10° NW 12:49:53 49° NNE 12:54:15 10° ESE daylight
24 Apr - 14:27:43 10° WNW 14:31:27 26° SW 14:35:13 10° S daylight
25 Apr - 04:34:55 10° SSE 04:37:40 16° SE 04:40:24 10° E visible
25 Apr - 06:14:31 10° WSW 06:19:00 74° NW 06:23:28 10° NE daylight
25 Apr - 07:58:03 10° WNW 08:01:20 20° NNW 08:04:37 10° NNE daylight
25 Apr - 09:42:22 10° NNW 09:44:29 13° N 09:46:35 10° NNE daylight
25 Apr - 11:23:57 10° NNW 11:27:32 23° NNE 11:31:07 10° ENE daylight
25 Apr - 13:05:12 10° NW 13:09:41 81° SW 13:14:11 10° SE daylight
25 Apr - 14:49:41 10° WSW 14:50:52 11° SW 14:52:04 10° SW daylight
26 Apr - 04:53:00 10° SSW 04:57:08 36° SE 05:01:15 10° ENE visible
26 Apr - 06:34:41 10° W 06:38:52 37° NNW 06:43:02 10° NE daylight
26 Apr - 08:19:03 10° NW 08:21:36 15° N 08:24:09 10° NNE daylight
26 Apr - 10:02:17 10° NNW 10:04:50 15° N 10:07:24 10° NE daylight
26 Apr - 11:43:24 10° NW 11:47:34 38° NNE 11:51:45 10° E daylight
26 Apr - 13:25:13 10° WNW 13:29:18 36° SW 13:33:25 10° SSE daylight
27 Apr - 03:34:12 10° SE 03:35:33 11° SE 03:36:54 10° ESE visible
27 Apr - 05:12:14 10° SW 05:16:45 83° SE 05:21:14 10° NE visible
27 Apr - 06:55:20 10° WNW 06:58:55 23° NNW 07:02:29 10° NNE daylight
27 Apr - 08:39:51 10° NNW 08:41:58 13° N 08:44:04 10° NNE daylight
27 Apr - 10:21:49 10° NNW 10:25:06 20° NNE 10:28:23 10° ENE daylight
27 Apr - 12:02:58 10° NW 12:07:25 75° NE 12:11:54 10° ESE daylight
27 Apr - 13:46:05 10° W 13:48:45 16° SW 13:51:27 10° SSW daylight
28 Apr - 03:51:10 10° S 03:54:57 26° SE 03:58:43 10° ENE visible
28 Apr - 05:32:10 10° WSW 05:36:32 48° NNW 05:40:52 10° NE visible
28 Apr - 07:16:16 10° NW 07:19:07 16° NNW 07:21:57 10° NNE daylight
28 Apr - 09:00:01 10° NNW 09:02:20 14° N 09:04:39 10° NE daylight
28 Apr - 10:41:15 10° NW 10:45:12 30° NNE 10:49:10 10° E daylight
28 Apr - 12:22:47 10° WNW 12:27:06 49° SW 12:31:25 10° SSE daylight
29 Apr - 04:10:01 10° SW 04:14:30 60° SE 04:18:55 10° ENE visible
29 Apr - 05:52:37 10° W 05:56:29 27° NNW 06:00:20 10° NE daylight
29 Apr - 07:37:12 10° NW 07:39:26 13° N 07:41:39 10° NNE daylight
29 Apr - 09:19:38 10° NNW 09:22:38 17° NNE 09:25:37 10° ENE daylight
29 Apr - 11:00:44 10° NW 11:05:07 56° NE 11:09:30 10° ESE daylight
29 Apr - 12:43:11 10° W 12:46:35 22° SW 12:50:01 10° S daylight
30 Apr - 02:49:31 10° S 02:52:46 19° SE 02:55:59 10° E visible
30 Apr - 04:29:41 10° WSW 04:34:11 64° NW 04:38:39 10° NE visible
30 Apr - 06:13:27 10° WNW 06:16:37 18° NNW 06:19:45 10° NNE daylight
30 Apr - 07:57:37 10° NNW 07:59:47 13° N 08:01:57 10° NNE daylight
30 Apr - 09:39:04 10° NNW 09:42:47 25° NNE 09:46:29 10° E daylight
30 Apr - 11:20:25 10° WNW 11:24:50 69° SW 11:29:16 10° SE daylight
01 May - 03:07:54 10° SSW 03:12:14 43° SE 03:16:31 10° ENE visible
01 May - 04:49:56 10° W 04:54:03 34° NNW 04:58:09 10° NE visible
01 May - 06:34:25 10° NW 06:36:52 14° N 06:39:19 10° NNE daylight
01 May - 08:17:24 10° NNW 08:20:06 16° NNE 08:22:48 10° NE daylight
01 May - 09:58:30 10° NW 10:02:45 43° NNE 10:07:00 10° ESE daylight
01 May - 11:40:30 10° WNW 11:44:23 30° SW 11:48:16 10° SSE daylight
02 May - 01:48:13 10° SSE 01:50:33 14° SE 01:52:53 10° E visible
02 May - 03:27:16 10° SW 03:31:51 85° NW 03:36:22 10° NE visible
02 May - 05:10:37 10° WNW 05:14:06 21° NNW 05:17:33 10° NNE visible
02 May - 06:55:04 10° NNW 06:57:12 13° N 06:59:19 10° NNE daylight
02 May - 08:36:51 10° NNW 08:40:18 21° NNE 08:43:43 10° ENE daylight
02 May - 10:18:04 10° NW 10:22:32 87° NE 10:26:59 10° SE daylight
02 May - 12:01:45 10° WSW 12:03:46 13° SW 12:05:47 10° SSW daylight
